Weather in Komatsu

Japan     36°18′30″N   136°24′14″E
temp.,
°C
wind,
m/s
gust,
m/s
humid.,
%
clouds,
%
prec.,
mm/h
press.,
hPa
HPBL,
m
6 march, sat
sat600:00+9sse1190100 0.6 102028
03:00+8wsw0194100 1.1 101822
06:00+7nne1299100 1.7 102076
09:00+7n3697100 2.3 1022331
12:00+6n3596100 0.0 1022271
15:00+7n4780100 0.1 1023656
18:00+3n4687100 0.0 1025410
21:00+1n3492100 0.0 1027309
7 march, sun
sun700:000n2491100 0.0 1028340
03:000n238799 0.0 1028428
06:000n2389100 0.0 1029203
09:00+3nnw1174100 0.0 1029507
12:00+7nw216488 0.0 1027644
15:00+6nw226780 0.0 1026611
18:00+3nw118286 0.0 102772
21:00+2wsw118791 0.0 102832
8 march, mon
mon800:00+2ssw118775 0.0 102723
03:00+2nne008687 0.0 102622
06:00+1nne119296 0.0 102723
09:00+5nw117678 0.0 1028350
12:00+8nw216986 0.0 1026722
15:00+8nnw336785 0.0 1025713
18:00+4nnw128228 0.0 102649
21:00+3ne118855 0.0 102723
9 march, tue
tue900:00+2sw0191100 0.0 102623
03:00+2sse009062 0.0 102522
06:00+2se118687 0.0 102522
09:00+7wsw116992 0.0 1025229
12:00+11nw2359100 0.0 1023684
15:00+11nw2162100 0.0 1021552
18:00+7nne118198 0.0 102123
21:00+5wsw018698 0.0 102223
10 march, wed
wed1000:00+4ssw0191100 0.0 102224
03:00+3nne119383 0.0 102243
06:00+3n368195 0.0 1024648
09:00+5nne376879 0.0 1026832
12:00+8n586045 0.0 10261291
15:00+6n466223 0.0 1026856
18:00+3nnw25720 0.0 1027354
21:00+2nne12780 0.0 103047